Location: Góry Miechowskie
(50.3599°N, 20.1803°E)
Time: 06:57:11
(UTC+00:00)

Courier 1B - Pass Details

Date: 13 September 2024
Orbit: 962 x 1208 km, 28.3° (Epoch: 12 October)

Event Time Altitude Azimuth Distance (km) Brightness Sun altitude
Rises 16:52:04 0° 239° (WSW) 4,065 11.7 -0.1°
Reaches altitude 10° 16:57:51 10° 206° (SSW) 3,131 10.4 -1.0°
Maximum altitude 16:59:35 11° 192° (SSW) 3,072 10.2 -1.3°
Drops below altitude 10° 17:01:19 10° 179° (S) 3,138 10.1 -1.6°
Sets 17:07:09 0° 146° (SE) 4,094 10.3 -2.5°
